[[{"header":{"parameterUnit":"m.s-1","parameterCategory":1,"la1":30.2991,"la2":30.254,"lo1":-89.0895,"lo2":-89.0444,"dy":0.0017,"dx":0.0017,"nx":28,"ny":28,"refTime":"2023-09-01T09:00:00:Z","depth":0,"parameterNumber":2,"parameterNumberName":"U-component_of_WINDS"},"data":[0,0,0,0,0,0,0,0,0,0,0,0,0,0,0,0,0,0,0,0,0,0,0,0,0,0,0,0,0,0,0,0,0,0,0,0,0,0,0,0,0,0,0,0,0,0,0,0,0,0,0,0,0,0,0,0,0,0,-2.1471,-2.1471,0,-2.1439,-2.1438,-2.1438,-2.1407,-2.1407,-2.1407,-2.1406,-2.137,-2.1369,-2.1368,0,0,0,0,0,0,0,0,0,0,0,0,0,-2.1505,-2.1505,-2.1471,-2.1471,-2.147,-2.1439,-2.1438,-2.1438,-2.1408,-2.1407,-2.1407,-2.1406,-2.137,-2.1369,-2.1368,0,0,0,0,0,0,0,0,0,0,0,0,0,-2.1483,-2.1505,-2.1471,-2.1452,-2.1449,-2.1439,-2.1438,-2.1438,-2.1408,-2.1407,-2.1407,-2.1406,-2.137,-2.1369,-2.1368,-2.1373,0,0,-2.1365,-2.1365,0,0,0,0,0,0,0,0,-2.1485,-2.1482,-2.1455,-2.1453,-2.145,-2.1427,-2.1437,-2.1416,-2.1408,-2.1423,-2.1406,-2.1406,-2.1389,-2.1386,-2.1381,-2.1372,-2.137,-2.1365,-2.1365,-2.1364,-2.1364,0,0,0,0,0,0,0,-2.1486,-2.1483,-2.1458,-2.1454,-2.1452,-2.1444,-2.144,-2.1433,-2.1409,-2.1422,-2.142,-2.1416,-2.1387,-2.1382,-2.138,-2.137,-2.1365,-2.1364,-2.1364,-2.1363,-2.1364,-2.1364,0,0,0,0,0,0,-2.1491,-2.1485,-2.1459,-2.1457,-2.1467,-2.1444,-2.1439,-2.1435,-2.1409,-2.1405,-2.1417,-2.1415,-2.1384,-2.1381,-2.1379,-2.1383,-2.1364,-2.1363,-2.1363,-2.1363,-2.1364,-2.1365,0,0,0,0,0,0,-2.1492,-2.1489,-2.146,-2.147,-2.1466,-2.1444,-2.1439,-2.1434,-2.1429,-2.1406,-2.1401,-2.1416,-2.1384,-2.138,-2.1376,-2.1382,-2.1363,-2.1362,-2.1363,-2.1364,-2.1364,-2.1393,0,0,0,0,0,0,-2.1493,-2.149,-2.1491,-2.1471,-2.1466,-2.1458,-2.1439,-2.1434,-2.1428,-2.1425,-2.1404,-2.1399,-2.1383,-2.1377,-2.1375,-2.138,-2.1361,-2.1362,-2.1363,-2.1364,-2.1391,-2.1394,-2.1397,0,0,0,0,0,-2.1494,-2.15,-2.1492,-2.1489,-2.1468,-2.1459,-2.1456,-2.1437,-2.1429,-2.143,-2.1416,-2.14,-2.1382,-2.1377,-2.1374,-2.1379,-2.1361,-2.1363,-2.1364,-2.139,-2.1394,-2.1397,0,0,0,0,0,0,-2.152,-2.1496,-2.1487,-2.1486,-2.1475,-2.1454,-2.1455,-2.1442,-2.1432,-2.143,-2.1407,-2.1402,-2.14,-2.1389,-2.1384,-2.1384,-2.137,-2.137,-2.139,-2.1394,-2.1397,-2.1399,-2.1361,0,0,0,0,0,-2.1526,-2.1521,-2.1501,-2.1502,-2.1497,-2.1477,-2.1472,-2.146,-2.1446,-2.1441,-2.1426,-2.1413,-2.1404,-2.1399,-2.139,-2.139,-2.1385,-2.1393,-2.1396,-2.1399,-2.1399,-2.1399,-2.1402,-2.1369,-2.1369,-2.1369,0,0,-2.1537,-2.1524,-2.1522,-2.1507,-2.1496,-2.1491,-2.1473,-2.1468,-2.1464,-2.144,-2.1435,-2.1424,-2.1408,-2.1406,-2.1404,-2.1397,-2.1407,-2.14,-2.1403,-2.1401,-2.1401,-2.1404,-2.1407,-2.137,-2.137,-2.137,0,0,-2.1555,-2.1545,-2.1545,-2.1535,-2.1521,-2.1508,-2.1508,-2.149,-2.1482,-2.1477,-2.1459,-2.1454,-2.1439,-2.1429,-2.1422,-2.1439,-2.1425,-2.1437,-2.1452,-2.1453,-2.1456,-2.1458,-2.1463,-2.1466,-2.1438,-2.1438,-2.1438,0,-2.157,-2.1562,-2.1546,-2.1543,-2.1537,-2.1517,-2.1517,-2.1508,-2.1491,-2.1487,-2.1479,-2.1462,-2.145,-2.1446,-2.1451,-2.1446,-2.1445,-2.1438,-2.1457,-2.1459,-2.1461,-2.1466,-2.1468,-2.1439,-2.1439,-2.1439,-2.1439,0,-2.1582,-2.1577,-2.1579,-2.1565,-2.1559,-2.1557,-2.154,-2.1537,-2.1526,-2.1514,-2.151,-2.1495,-2.1483,-2.1482,-2.147,-2.1476,-2.1472,-2.1461,-2.1446,-2.1466,-2.147,-2.1472,-2.1442,-2.1441,-2.1441,-2.144,0,0,-2.1612,-2.1591,-2.1591,-2.1585,-2.1569,-2.1565,-2.1563,-2.1553,-2.155,-2.154,-2.1537,-2.1527,-2.1517,-2.1509,-2.1497,-2.1497,-2.1512,-2.1486,-2.1486,-2.1491,-2.1518,-2.1526,-2.1528,-2.1504,-2.1504,-2.1504,-2.152,0,-2.1626,-2.1622,-2.1608,-2.1608,-2.1603,-2.1586,-2.1584,-2.1574,-2.1564,-2.1559,-2.1547,-2.154,-2.1528,-2.1523,-2.1524,-2.151,-2.1517,-2.1509,-2.15,-2.15,-2.1503,-2.1531,-2.1538,-2.1553,-2.1521,-2.1522,-2.1522,0,-2.1641,-2.1634,-2.1633,-2.1619,-2.1617,-2.1615,-2.1606,-2.1601,-2.159,-2.1582,-2.1575,-2.1562,-2.1559,-2.1547,-2.1543,-2.1538,-2.1534,-2.1527,-2.1527,-2.1524,-2.151,-2.1527,-2.1557,-2.1559,-2.1524,-2.1524,-2.1524,0,-2.1662,-2.1652,-2.1651,-2.1646,-2.1629,-2.1629,-2.1622,-2.161,-2.1606,-2.1597,-2.1594,-2.1585,-2.158,-2.1574,-2.1558,-2.1551,-2.1556,-2.1542,-2.1549,-2.1549,-2.1548,-2.1548,-2.1577,-2.1548,-2.1548,-2.1548,-2.1548,0,-2.1678,-2.1678,-2.166,-2.1659,-2.1659,-2.1644,-2.1644,-2.1636,-2.1626,-2.1623,-2.1608,-2.1605,-2.1586,-2.1581,-2.157,-2.1568,-2.1566,-2.1559,-2.1556,-2.156,-2.156,-2.1555,-2.1553,-2.1549,-2.1549,-2.1549,-2.1549,0,-2.17,-2.1688,-2.1686,-2.1671,-2.1668,-2.1668,-2.1656,-2.1654,-2.1645,-2.1641,-2.1639,-2.1623,-2.1617,-2.1602,-2.1592,-2.1584,-2.1585,-2.1579,-2.1589,-2.1586,-2.1593,-2.1592,-2.1618,-2.162,-2.1592,-2.1592,-2.1592,0,-2.1711,-2.1711,-2.1697,-2.1695,-2.1689,-2.1685,-2.1681,-2.1666,-2.1662,-2.1651,-2.1651,-2.1644,-2.1637,-2.1629,-2.1616,-2.1608,-2.1601,-2.1611,-2.16,-2.1604,-2.16,-2.16,-2.16,-2.1613,-2.1613,-2.1614,-2.1614,0,-2.173,-2.1725,-2.172,-2.1713,-2.1709,-2.1703,-2.1696,-2.1695,-2.1679,-2.1675,-2.167,-2.1665,-2.1656,-2.1649,-2.164,-2.1632,-2.162,-2.1618,-2.1619,-2.1622,-2.1627,-2.1623,-2.1594,-2.1617,-2.1616,-2.1616,-2.1616,-2.1616,-2.1746,-2.1745,-2.1736,-2.1732,-2.1725,-2.172,-2.1718,-2.1709,-2.1705,-2.1696,-2.1689,-2.1684,-2.1674,-2.1661,-2.1654,-2.165,-2.1644,-2.1645,-2.1645,-2.1646,-2.1647,-2.163,-2.1649,-2.1649,-2.1648,-2.1648,-2.1648,0,-2.1764,-2.1758,-2.1754,-2.1745,-2.1742,-2.1734,-2.1726,-2.1723,-2.172,-2.1712,-2.1707,-2.1701,-2.1695,-2.1683,-2.1676,-2.1675,-2.167,-2.1674,-2.1673,-2.1671,-2.1653,-2.1653,-2.1678,-2.1678,-2.1678,-2.1678,-2.1678,-2.1678,-2.1772,-2.1771,-2.1765,-2.1762,-2.1755,-2.1752,-2.1748,-2.1743,-2.1737,-2.1731,-2.1727,-2.172,-2.1711,-2.1703,-2.1698,-2.1694,-2.1692,-2.1697,-2.1692,-2.1675,-2.1672,-2.1669,-2.1669,-2.1697,-2.1697,-2.171,-2.171,-2.171]},{"header":{"parameterUnit":"m.s-1","parameterCategory":1,"la1":30.2991,"la2":30.254,"lo1":-89.0895,"lo2":-89.0444,"dy":0.0017,"dx":0.0017,"nx":28,"ny":28,"refTime":"2023-09-01T09:00:00:Z","depth":0,"parameterNumber":3,"parameterNumberName":"V-component_of_WINDS"},"data":[0,0,0,0,0,0,0,0,0,0,0,0,0,0,0,0,0,0,0,0,0,0,0,0,0,0,0,0,0,0,0,0,0,0,0,0,0,0,0,0,0,0,0,0,0,0,0,0,0,0,0,0,0,0,0,0,0,0,0.8667,0.8667,0,0.8608,0.8608,0.8607,0.8534,0.8533,0.8532,0.8531,0.8472,0.8471,0.8471,0,0,0,0,0,0,0,0,0,0,0,0,0,0.8718,0.8717,0.8667,0.8667,0.8666,0.8609,0.8608,0.8607,0.8535,0.8533,0.8532,0.853,0.8472,0.8471,0.8471,0,0,0,0,0,0,0,0,0,0,0,0,0,0.8681,0.8717,0.8667,0.8623,0.8618,0.8609,0.8608,0.8607,0.8535,0.8533,0.8531,0.853,0.8472,0.8471,0.8471,0.8501,0,0,0.8468,0.8468,0,0,0,0,0,0,0,0,0.8683,0.8679,0.863,0.8626,0.8621,0.8577,0.8604,0.8571,0.8535,0.8567,0.8531,0.8529,0.8508,0.8504,0.8497,0.8498,0.8495,0.8468,0.8468,0.8467,0.8467,0,0,0,0,0,0,0,0.8686,0.8682,0.8644,0.8629,0.8624,0.8606,0.8599,0.8597,0.8548,0.8564,0.8558,0.8552,0.8505,0.8498,0.8495,0.8494,0.8468,0.8468,0.8467,0.8467,0.8517,0.8519,0,0,0,0,0,0,0.8695,0.8684,0.8646,0.8642,0.8648,0.8607,0.8599,0.8593,0.8548,0.8539,0.8554,0.8549,0.85,0.8496,0.8493,0.8525,0.8467,0.8467,0.8466,0.8515,0.8518,0.852,0,0,0,0,0,0,0.8697,0.8692,0.8648,0.8662,0.8655,0.8607,0.8602,0.8593,0.8585,0.854,0.8531,0.8555,0.8499,0.8494,0.8499,0.8522,0.8466,0.8466,0.8513,0.8516,0.8519,0.859,0,0,0,0,0,0,0.8698,0.8693,0.8704,0.8662,0.8654,0.8655,0.8603,0.8593,0.8584,0.8577,0.8539,0.8531,0.8497,0.8501,0.8499,0.852,0.8465,0.8511,0.8515,0.8518,0.8586,0.8595,0.8603,0,0,0,0,0,0.87,0.8726,0.8705,0.8701,0.8666,0.8657,0.8652,0.8612,0.8586,0.8596,0.8568,0.8532,0.852,0.8502,0.8499,0.8521,0.8509,0.8514,0.8517,0.8582,0.8593,0.8603,0,0,0,0,0,0,0.8772,0.872,0.8696,0.8709,0.8688,0.8645,0.8656,0.8625,0.8611,0.8606,0.8556,0.8548,0.856,0.8541,0.8521,0.8547,0.851,0.8513,0.856,0.857,0.8579,0.8583,0.8464,0,0,0,0,0,0.8789,0.8785,0.8741,0.8757,0.8747,0.8704,0.8698,0.8669,0.8645,0.8636,0.8608,0.8586,0.8577,0.8573,0.8562,0.8583,0.8574,0.8596,0.8605,0.8612,0.8616,0.8626,0.8636,0.8533,0.8533,0.8533,0,0,0.8825,0.8796,0.8797,0.877,0.8751,0.8748,0.8697,0.8696,0.8694,0.8636,0.8639,0.8618,0.8591,0.8604,0.8608,0.8588,0.8643,0.8617,0.8624,0.8623,0.8631,0.8641,0.865,0.8536,0.8535,0.8535,0,0,0.8889,0.8867,0.8878,0.8859,0.883,0.8801,0.8804,0.8765,0.8749,0.8751,0.8708,0.8705,0.8691,0.8673,0.8663,0.8721,0.8689,0.8719,0.8765,0.8775,0.8783,0.879,0.8812,0.882,0.8723,0.8723,0.8723,0,0.8937,0.8931,0.8888,0.889,0.888,0.8827,0.8839,0.8823,0.8792,0.8786,0.8764,0.8746,0.8724,0.8732,0.8747,0.874,0.8742,0.8723,0.8786,0.8792,0.8798,0.8818,0.8826,0.8727,0.8727,0.8726,0.8726,0,0.8992,0.8989,0.9002,0.8973,0.8964,0.8971,0.8929,0.8926,0.8898,0.8872,0.8875,0.8847,0.883,0.883,0.8803,0.8836,0.8824,0.8795,0.8756,0.8813,0.883,0.8838,0.8733,0.8731,0.873,0.8729,0,0,0.9099,0.9047,0.9052,0.9039,0.9003,0.9,0.9005,0.8988,0.8986,0.8967,0.897,0.896,0.8933,0.8921,0.8891,0.89,0.8949,0.8869,0.8868,0.8885,0.8984,0.9006,0.9016,0.8927,0.8928,0.8929,0.8986,0,0.9156,0.9161,0.9123,0.9138,0.9135,0.9086,0.909,0.9069,0.9045,0.9039,0.9012,0.9006,0.897,0.8963,0.8969,0.8942,0.8968,0.8937,0.893,0.893,0.8939,0.9025,0.9048,0.9103,0.8993,0.8994,0.8995,0,0.9224,0.9208,0.9224,0.9188,0.9185,0.919,0.9172,0.9167,0.9142,0.9124,0.9111,0.9077,0.908,0.9043,0.9047,0.9026,0.9021,0.9007,0.9009,0.9006,0.8966,0.9025,0.912,0.9128,0.9005,0.9004,0.9004,0,0.9301,0.9284,0.9291,0.9281,0.9239,0.9244,0.9227,0.92,0.9193,0.9177,0.9172,0.9157,0.9149,0.9139,0.9102,0.9079,0.911,0.907,0.9096,0.9097,0.9105,0.9105,0.92,0.9102,0.9101,0.9101,0.9101,0,0.9369,0.9381,0.9325,0.933,0.9341,0.9297,0.931,0.9288,0.9265,0.9265,0.9221,0.9222,0.9173,0.9168,0.9139,0.9147,0.9144,0.913,0.9122,0.9134,0.9136,0.913,0.9125,0.9103,0.9103,0.9102,0.9102,0,0.9457,0.942,0.9425,0.9385,0.9375,0.9386,0.9352,0.9354,0.9328,0.9328,0.9325,0.9284,0.9276,0.9238,0.9222,0.9203,0.9221,0.9205,0.9229,0.9224,0.9252,0.925,0.9347,0.9357,0.9252,0.9253,0.9254,0,0.9503,0.9511,0.9472,0.9469,0.9453,0.9448,0.9441,0.9398,0.9392,0.9365,0.9371,0.936,0.9349,0.9339,0.9308,0.9295,0.9279,0.9314,0.9277,0.9289,0.928,0.928,0.9281,0.9322,0.9324,0.9325,0.9325,0,0.9589,0.9571,0.9561,0.9546,0.9538,0.9524,0.9507,0.9507,0.9459,0.9455,0.9446,0.9438,0.9421,0.9411,0.9393,0.9376,0.9343,0.9337,0.9343,0.9355,0.9369,0.9362,0.9251,0.9335,0.9334,0.9334,0.9333,0.9333,0.9658,0.9662,0.9636,0.9627,0.961,0.9596,0.9596,0.957,0.9562,0.9545,0.952,0.9516,0.9491,0.9464,0.945,0.9446,0.9427,0.9434,0.9436,0.9439,0.9445,0.9369,0.9442,0.9442,0.9441,0.9441,0.9441,0,0.9742,0.9722,0.9715,0.9693,0.9686,0.9655,0.9635,0.9632,0.9628,0.9608,0.9598,0.9589,0.9579,0.9547,0.9534,0.9537,0.9522,0.9535,0.9535,0.9531,0.9462,0.9459,0.9548,0.9548,0.9548,0.9548,0.9548,0.9548,0.9785,0.9791,0.977,0.9768,0.9748,0.9743,0.9734,0.9721,0.9705,0.9697,0.9688,0.9667,0.9643,0.9627,0.9617,0.9608,0.9606,0.9624,0.961,0.9546,0.9536,0.9526,0.9523,0.9624,0.9624,0.9679,0.968,0.968]}]]